Weather History for Findlay, OH

Change the Weather History Date:

Sunday, January 20, 2013

  Actual Average Record
Temperature  
Mean Temperature 32 °F -  
Max Temperature 44 °F 29 °F 60 °F (1951)
Min Temperature 19 °F 18 °F -19 °F (1985)
Degree Days  
Heating Degree Days 34    
Moisture  
Dew Point 13 °F    
Average Humidity 60    
Maximum Humidity 68    
Minimum Humidity 46    
Precipitation  
Precipitation 0.00 in - - ()
Sea Level Pressure  
Sea Level Pressure 30.09 in    
Wind  
Wind Speed 21 mph (WNW)    
Max Wind Speed 33 mph    
Max Gust Speed 48 mph    
Visibility 10 miles    
Events      
Averages and records for this station are not official NWS values.
T = Trace of Precipitation, MM = Missing Value Source: NWS Daily Summary

Daily Weather History Graph

Daily Weather History Graph

Search for Another Location

Airport:

Trip Planner

Search our weather history database for the weather conditions in past years. The results will help you decide how hot, cold, wet, or windy it might be!

Date:

Astronomy

Jan. 20, 2013 Rise Set
Actual Time 7:54 AM EST 5:37 PM EST
Civil Twilight 7:24 AM EST 6:07 PM EST
Nautical Twilight 6:51 AM EST 6:40 PM EST
Astronomical Twilight 6:18 AM EST 7:13 PM EST
Moon 12:38 PM EST (1/20) 2:25 AM EST (1/20)
Length of Visible Light 10h 42m
Length of Day
9h 42m
Waxing Gibbous, 66% of the Moon is Illuminated
Jan 20
Waxing Gibbous
Jan 26
Full
Feb 3
Last Quarter
Feb 10
New
Feb 17
First Quarter

Hourly Weather History & Observations

Time (EST) Temp. Windchill Dew Point Humidity Pressure Visibility Wind Dir Wind Speed Gust Speed Precip Events Conditions
12:53 AM 44.1 °F 34.8 °F 34.0 °F 68% 29.72 in 10.0 mi WSW 25.3 mph 34.5 mph N/A   Clear
1:53 AM 42.1 °F 30.8 °F 32.0 °F 67% 29.75 in 10.0 mi West 33.4 mph 48.3 mph N/A   Scattered Clouds
2:53 AM 39.0 °F 26.6 °F 24.1 °F 55% 29.78 in 10.0 mi WSW 33.4 mph 44.9 mph N/A   Clear
3:53 AM 36.0 °F 22.6 °F 17.1 °F 46% 29.82 in 10.0 mi West 32.2 mph 42.6 mph N/A   Clear
4:53 AM 30.9 °F 17.2 °F 15.1 °F 52% 29.89 in 10.0 mi WNW 25.3 mph 41.4 mph N/A   Clear
5:53 AM 28.0 °F 13.6 °F 14.0 °F 56% 29.94 in 10.0 mi West 24.2 mph 36.8 mph N/A   Clear
6:53 AM 26.1 °F 12.0 °F 12.9 °F 58% 30.01 in 10.0 mi WNW 20.7 mph 32.2 mph N/A   Overcast
7:53 AM 24.1 °F 8.0 °F 10.9 °F 57% 30.05 in 10.0 mi WNW 25.3 mph 34.5 mph N/A   Scattered Clouds
8:42 AM 23.0 °F 7.2 °F 10.4 °F 59% 30.08 in 10.0 mi WNW 23.0 mph 29.9 mph N/A   Mostly Cloudy
8:49 AM 21.2 °F 6.4 °F 10.4 °F 63% 30.08 in 10.0 mi WNW 18.4 mph 33.4 mph N/A   Mostly Cloudy
8:53 AM 21.9 °F 6.9 °F 10.0 °F 60% 30.10 in 10.0 mi WNW 19.6 mph 33.4 mph N/A   Scattered Clouds
9:53 AM 21.9 °F 5.8 °F 10.0 °F 60% 30.15 in 10.0 mi NW 23.0 mph 28.8 mph N/A   Mostly Cloudy
10:21 AM 21.2 °F 6.0 °F 8.6 °F 58% 30.16 in 10.0 mi NW 19.6 mph 31.1 mph N/A   Mostly Cloudy
10:53 AM 21.9 °F 7.3 °F 10.0 °F 60% 30.19 in 10.0 mi WNW 18.4 mph 27.6 mph N/A   Overcast
11:34 AM 21.2 °F 6.8 °F 10.4 °F 63% 30.18 in 10.0 mi West 17.3 mph 24.2 mph N/A   Overcast
11:53 AM 23.0 °F 11.1 °F 10.0 °F 58% 30.19 in 10.0 mi WNW 12.7 mph 21.9 mph N/A   Overcast
12:53 PM 23.0 °F 9.6 °F 10.0 °F 58% 30.17 in 10.0 mi West 16.1 mph - N/A   Mostly Cloudy
1:05 PM 24.8 °F 14.6 °F 10.4 °F 54% 30.15 in 10.0 mi West 10.4 mph - N/A   Scattered Clouds
1:12 PM 24.8 °F 13.4 °F 10.4 °F 54% 30.15 in 10.0 mi West 12.7 mph 23.0 mph N/A   Mostly Cloudy
1:50 PM 24.8 °F 13.4 °F 10.4 °F 54% 30.15 in 10.0 mi West 12.7 mph - N/A   Mostly Cloudy
1:53 PM 25.0 °F 12.2 °F 10.9 °F 55% 30.17 in 10.0 mi West 16.1 mph - N/A   Mostly Cloudy
2:53 PM 23.0 °F 11.1 °F 10.0 °F 58% 30.17 in 10.0 mi West 12.7 mph - N/A   Overcast
3:53 PM 24.1 °F 11.0 °F 10.9 °F 57% 30.19 in 10.0 mi West 16.1 mph 20.7 mph N/A   Overcast
4:53 PM 23.0 °F 10.6 °F 10.9 °F 60% 30.19 in 10.0 mi West 13.8 mph - N/A   Mostly Cloudy
5:53 PM 21.9 °F 9.2 °F 10.9 °F 63% 30.20 in 10.0 mi WNW 13.8 mph - N/A   Partly Cloudy
6:53 PM 21.9 °F 9.2 °F 10.9 °F 63% 30.21 in 10.0 mi WNW 13.8 mph - N/A   Clear
7:53 PM 19.9 °F 9.3 °F 10.9 °F 68% 30.22 in 10.0 mi WNW 9.2 mph - N/A   Clear
8:53 PM 19.9 °F 11.1 °F 10.0 °F 65% 30.20 in 10.0 mi West 6.9 mph - N/A   Clear
9:53 PM 19.9 °F 12.1 °F 10.9 °F 68% 30.20 in 10.0 mi WNW 5.8 mph - N/A   Mostly Cloudy
10:53 PM 19.0 °F 10.0 °F 10.0 °F 68% 30.19 in 10.0 mi WNW 6.9 mph - N/A   Clear
11:53 PM 19.0 °F 11.1 °F 10.0 °F 68% 30.17 in 10.0 mi NW 5.8 mph - N/A   Overcast